| time (UTC) | temp C | wind direction | speed KPH | gust KPH | rain 1hr cm | rain 24hr cm | rain mn cm | humidity % | barometer mb |
| 20260510133047 | 12 | 171 | 0.0 | 3.2 | 0.00 | 1.60 | 0.05 | 96 | 1010.5 |
| 20260510131544 | 11 | 135 | 0.0 | 4.8 | 0.00 | 1.60 | 0.05 | 96 | 1010.8 |
| 20260510130039 | 10 | 150 | 0.0 | 4.8 | 0.00 | 1.60 | 0.05 | 96 | 1010.8 |
| 20260510124557 | 10 | 151 | 0.0 | 0.0 | 0.00 | 1.60 | 0.05 | 96 | 1010.9 |
| 20260510123035 | 10 | 262 | 0.0 | 4.8 | 0.00 | 1.60 | 0.05 | 96 | 1011.0 |
| 20260510121533 | 10 | 117 | 0.0 | 3.2 | 0.00 | 1.60 | 0.05 | 96 | 1011.3 |
| 20260510120033 | 9 | 190 | 0.0 | 3.2 | 0.00 | 1.60 | 0.05 | 96 | 1010.7 |
| 20260510114528 | 9 | 206 | 0.0 | 0.0 | 0.00 | 1.60 | 0.05 | 96 | 1010.8 |
| 20260510113033 | 9 | 206 | 0.0 | 0.0 | 0.00 | 1.60 | 0.05 | 96 | 1010.6 |
| 20260510111531 | 8 | 206 | 0.0 | 3.2 | 0.00 | 1.60 | 0.05 | 96 | 1010.5 |
| 20260510110021 | 8 | 101 | 0.0 | 0.0 | 0.00 | 1.60 | 0.05 | 96 | 1010.2 |
| 20260510104524 | 8 | 5 | 0.0 | 0.0 | 0.00 | 1.60 | 0.05 | 96 | 1009.9 |
| 20260510103017 | 8 | 5 | 0.0 | 0.0 | 0.00 | 1.60 | 0.05 | 96 | 1009.8 |
| 20260510101518 | 8 | 5 | 0.0 | 0.0 | 0.00 | 1.60 | 0.05 | 96 | 1009.7 |
| 20260510100015 | 7 | 5 | 0.0 | 0.0 | 0.03 | 1.60 | 0.05 | 96 | 1010.0 |
| 20260510094512 | 7 | 5 | 0.0 | 0.0 | 0.03 | 1.60 | 0.05 | 96 | 1009.6 |
| 20260510093012 | 7 | 5 | 0.0 | 0.0 | 0.03 | 1.60 | 0.05 | 96 | 1009.7 |
| 20260510091522 | 7 | 5 | 0.0 | 0.0 | 0.03 | 1.60 | 0.05 | 96 | 1009.7 |
| 20260510090013 | 7 | 5 | 0.0 | 0.0 | 0.00 | 1.57 | 0.03 | 96 | 1009.8 |
| 20260510084509 | 7 | 5 | 0.0 | 0.0 | 0.00 | 1.57 | 0.03 | 96 | 1009.8 |
| 20260510083008 | 7 | 5 | 0.0 | 0.0 | 0.00 | 1.57 | 0.03 | 96 | 1009.8 |
| 20260510081522 | 7 | 5 | 0.0 | 0.0 | 0.00 | 1.57 | 0.03 | 96 | 1009.6 |
| 20260510080009 | 7 | 5 | 0.0 | 0.0 | 0.00 | 1.57 | 0.03 | 96 | 1009.9 |
| 20260510074507 | 7 | 5 | 0.0 | 0.0 | 0.00 | 1.57 | 0.03 | 96 | 1009.9 |
| 20260510073003 | 7 | 5 | 0.0 | 0.0 | 0.00 | 1.57 | 0.03 | 96 | 1010.0 |
| 20260510071502 | 7 | 5 | 0.0 | 0.0 | 0.03 | 1.57 | 0.03 | 96 | 1009.6 |
| 20260510070108 | 7 | 5 | 0.0 | 0.0 | 0.03 | 1.57 | 0.03 | 96 | 1009.7 |
| 20260510064610 | 7 | 5 | 0.0 | 0.0 | 0.03 | 1.57 | 0.03 | 96 | 1009.8 |
| 20260510063056 | 7 | 5 | 0.0 | 0.0 | 0.03 | 1.57 | 0.03 | 96 | 1009.9 |
| 20260510061554 | 7 | 5 | 0.0 | 0.0 | 0.00 | 1.55 | 0.00 | 96 | 1010.3 |
| 20260510060052 | 7 | 5 | 0.0 | 0.0 | 0.00 | 1.55 | 0.00 | 96 | 1010.4 |
| 20260510054549 | 7 | 5 | 0.0 | 0.0 | 0.00 | 1.55 | 0.00 | 96 | 1010.4 |
| 20260510053048 | 7 | 5 | 0.0 | 0.0 | 0.00 | 1.55 | 0.00 | 95 | 1010.7 |
| 20260510051546 | 7 | 5 | 0.0 | 0.0 | 0.00 | 1.55 | 0.00 | 95 | 1010.8 |
| 20260510050043 | 6 | 5 | 0.0 | 0.0 | 0.00 | 1.55 | 0.00 | 95 | 1010.6 |
| 20260510044548 | 6 | 5 | 0.0 | 0.0 | 0.00 | 1.55 | 0.00 | 95 | 1010.7 |
| 20260510043038 | 6 | 5 | 0.0 | 0.0 | 0.00 | 1.55 | 0.00 | 95 | 1010.8 |
| 20260510041539 | 6 | 5 | 0.0 | 0.0 | 0.03 | 1.55 | 0.00 | 95 | 1011.0 |
| 20260510040034 | 6 | 5 | 0.0 | 0.0 | 0.03 | 1.55 | 0.00 | 95 | 1010.8 |
| 20260510034532 | 6 | 5 | 0.0 | 0.0 | 0.05 | 1.55 | 1.55 | 95 | 1011.0 |
| 20260510033030 | 6 | 5 | 0.0 | 0.0 | 0.08 | 1.55 | 1.55 | 95 | 1011.1 |
| 20260510031535 | 6 | 5 | 0.0 | 0.0 | 0.10 | 1.52 | 1.52 | 95 | 1011.4 |
| 20260510030029 | 6 | 5 | 0.0 | 0.0 | 0.20 | 1.52 | 1.52 | 95 | 1011.3 |
| 20260510024533 | 6 | 68 | 0.0 | 0.0 | 0.20 | 1.50 | 1.50 | 95 | 1011.5 |
| 20260510023028 | 6 | 49 | 0.0 | 0.0 | 0.18 | 1.45 | 1.45 | 95 | 1011.4 |
| 20260510021529 | 6 | 59 | 0.0 | 0.0 | 0.15 | 1.42 | 1.42 | 95 | 1011.6 |
| 20260510020027 | 6 | 59 | 0.0 | 0.0 | 0.05 | 1.32 | 1.32 | 95 | 1011.8 |
| 20260510014530 | 6 | 59 | 0.0 | 0.0 | 0.03 | 1.30 | 1.30 | 95 | 1011.9 |
| 20260510013026 | 6 | 59 | 0.0 | 0.0 | 0.05 | 1.30 | 1.30 | 95 | 1011.9 |
| 20260510011528 | 6 | 59 | 0.0 | 0.0 | 0.03 | 1.27 | 1.27 | 95 | 1011.7 |
| 20260510010026 | 6 | 61 | 0.0 | 0.0 | 0.03 | 1.27 | 1.27 | 95 | 1011.5 |
| 20260510004525 | 6 | 65 | 0.0 | 0.0 | 0.03 | 1.27 | 1.27 | 95 | 1011.7 |
| 20260510003034 | 6 | 67 | 0.0 | 0.0 | 0.03 | 1.24 | 1.24 | 95 | 1011.4 |
| 20260510001525 | 6 | 9 | 0.0 | 3.2 | 0.05 | 1.24 | 1.24 | 95 | 1011.2 |
| 20260510000026 | 6 | 53 | 0.0 | 0.0 | 0.05 | 1.24 | 1.24 | 94 | 1011.1 |
| 20260509234535 | 6 | 53 | 0.0 | 0.0 | 0.08 | 1.24 | 1.24 | 94 | 1011.2 |
| 20260509233034 | 6 | 36 | 0.0 | 0.0 | 0.13 | 1.22 | 1.22 | 94 | 1011.3 |
| 20260509231524 | 6 | 59 | 0.0 | 0.0 | 0.15 | 1.19 | 1.19 | 94 | 1011.4 |
| 20260509230025 | 6 | 25 | 0.0 | 0.0 | 0.20 | 1.19 | 1.19 | 94 | 1011.5 |
| 20260509224518 | 6 | 25 | 0.0 | 0.0 | 0.20 | 1.17 | 1.17 | 93 | 1011.5 |
| 20260509223018 | 6 | 37 | 0.0 | 0.0 | 0.15 | 1.09 | 1.09 | 93 | 1011.6 |
| 20260509221517 | 6 | 301 | 0.0 | 0.0 | 0.15 | 1.04 | 1.04 | 93 | 1011.6 |
| 20260509220020 | 6 | 144 | 0.0 | 1.6 | 0.18 | 0.99 | 0.99 | 93 | 1011.8 |
| 20260509214516 | 6 | 26 | 0.0 | 0.0 | 0.15 | 0.97 | 0.97 | 93 | 1011.9 |
| 20260509213016 | 7 | 20 | 0.0 | 4.8 | 0.15 | 0.94 | 0.94 | 93 | 1012.1 |
| 20260509211515 | 7 | 267 | 0.0 | 0.0 | 0.10 | 0.89 | 0.89 | 92 | 1012.0 |
| 20260509210014 | 7 | 57 | 0.0 | 0.0 | 0.05 | 0.81 | 0.81 | 93 | 1012.0 |
| 20260509204510 | 7 | 55 | 0.0 | 1.6 | 0.05 | 0.81 | 0.81 | 93 | 1011.9 |
| 20260509203008 | 7 | 59 | 0.0 | 1.6 | 0.08 | 0.79 | 0.79 | 93 | 1012.1 |
| 20260509201512 | 7 | 86 | 0.0 | 6.4 | 0.13 | 0.79 | 0.79 | 93 | 1012.0 |
| 20260509200007 | 7 | 84 | 0.0 | 4.8 | 0.18 | 0.76 | 0.76 | 93 | 1012.2 |
| 20260509194509 | 7 | 24 | 0.0 | 3.2 | 0.25 | 0.76 | 0.76 | 93 | 1012.4 |
| 20260509193006 | 7 | 104 | 0.0 | 0.0 | 0.28 | 0.71 | 0.71 | 92 | 1012.7 |
| 20260509191505 | 7 | 106 | 0.0 | 0.0 | 0.30 | 0.66 | 0.66 | 91 | 1012.9 |
| 20260509190011 | 7 | 106 | 0.0 | 0.0 | 0.28 | 0.58 | 0.58 | 91 | 1012.8 |
| 20260509184512 | 7 | 111 | 0.0 | 1.6 | 0.30 | 0.51 | 0.51 | 90 | 1012.9 |
| 20260509183003 | 7 | 144 | 0.0 | 0.0 | 0.30 | 0.43 | 0.43 | 90 | 1013.2 |
| 20260509181501 | 7 | 162 | 0.0 | 0.0 | 0.25 | 0.36 | 0.36 | 89 | 1013.1 |
| 20260509180104 | 8 | 161 | 0.0 | 3.2 | 0.25 | 0.30 | 0.30 | 89 | 1013.1 |
| 20260509174558 | 8 | 159 | 0.0 | 4.8 | 0.18 | 0.20 | 0.20 | 87 | 1013.2 |
| 20260509173101 | 8 | 153 | 0.0 | 0.0 | 0.10 | 0.13 | 0.13 | 84 | 1013.0 |
| 20260509171555 | 9 | 171 | 0.0 | 0.0 | 0.10 | 0.10 | 0.10 | 83 | 1013.0 |
| 20260509164554 | 10 | 190 | 0.0 | 0.0 | 0.03 | 0.03 | 0.03 | 77 | 1013.0 |
| 20260509163102 | 10 | 190 | 0.0 | 3.2 | 0.03 | 0.03 | 0.03 | 74 | 1013.1 |
| 20260509161556 | 10 | 201 | 0.0 | 6.4 | 0.00 | 0.00 | 0.00 | 70 | 1013.3 |
| 20260509160051 | 10 | 207 | 0.0 | 0.0 | 0.00 | 0.00 | 0.00 | 66 | 1013.2 |
| 20260509154602 | 10 | 232 | 0.0 | 4.8 | 0.00 | 0.00 | 0.00 | 61 | 1013.3 |
| 20260509153050 | 11 | 144 | 0.0 | 12.9 | 0.00 | 0.00 | 0.00 | 56 | 1013.4 |
| 20260509151552 | 12 | 187 | 0.0 | 11.3 | 0.00 | 0.00 | 0.00 | 49 | 1013.3 |
| 20260509150104 | 12 | 198 | 0.0 | 11.3 | 0.00 | 0.00 | 0.00 | 42 | 1013.0 |
| 20260509144647 | 12 | 130 | 0.0 | 6.4 | 0.00 | 0.00 | 0.00 | 43 | 1012.8 |
| 20260509143053 | 13 | 94 | 0.0 | 1.6 | 0.00 | 0.00 | 0.00 | 44 | 1012.6 |
| 20260509141547 | 12 | 200 | 0.0 | 6.4 | 0.00 | 0.00 | 0.00 | 44 | 1012.5 |
| 20260509140045 | 12 | 82 | 0.0 | 3.2 | 0.00 | 0.00 | 0.00 | 40 | 1012.5 |
| 20260509134546 | 13 | 156 | 0.0 | 4.8 | 0.00 | 0.00 | 0.00 | 43 | 1012.5 |